Weather History for Troy, MI

Change the Weather History Date:

Wednesday, February 13, 2013

  Actual Average (KDET) Record (KDET)
Temperature  
Mean Temperature 36 °F -  
Max Temperature 42 °F 32 °F 63 °F (1990)
Min Temperature 30 °F 19 °F 0 °F (1970)
Degree Days  
Heating Degree Days 29    
Moisture  
Dew Point 24 °F    
Average Humidity 67    
Maximum Humidity 84    
Minimum Humidity 46    
Precipitation  
Precipitation 0.00 in - - ()
Sea Level Pressure  
Sea Level Pressure 29.83 in    
Wind  
Wind Speed 5 mph (SW)    
Max Wind Speed 9 mph    
Max Gust Speed 9 mph    
Visibility 10 miles    
Events      
Averages and records for this station are not official NWS values.
T = Trace of Precipitation, MM = Missing Value Source: NWS Daily Summary

Daily Weather History Graph

Daily Weather History Graph

Search for Another Location

Airport:

Trip Planner

Search our weather history database for the weather conditions in past years. The results will help you decide how hot, cold, wet, or windy it might be!

Date:

Astronomy

Feb. 13, 2013 Rise Set
Actual Time 7:31 AM EST 6:02 PM EST
Civil Twilight 7:02 AM EST 6:31 PM EST
Nautical Twilight 6:29 AM EST 7:04 PM EST
Astronomical Twilight 5:57 AM EST 7:37 PM EST
Moon 8:54 AM EST (2/13) 10:10 PM EST (2/13)
Length of Visible Light 11h 28m
Length of Day
10h 30m
Waxing Crescent, 13% of the Moon is Illuminated
Feb 13
Waxing Crescent
Feb 17
First Quarter
Feb 25
Full
Mar 4
Last Quarter
Mar 11
New

Hourly Weather History & Observations

Time (EST) Temp. Windchill Dew Point Humidity Pressure Visibility Wind Dir Wind Speed Gust Speed Precip Events Conditions
12:14 AM 32.0 °F 24.2 °F 22.6 °F 68% 29.93 in 10.0 mi WNW 9.2 mph - N/A   Overcast
12:34 AM 32.0 °F 24.8 °F 22.5 °F 68% 29.94 in 10.0 mi West 8.1 mph - N/A   Overcast
12:54 AM 32.0 °F 24.8 °F 22.8 °F 69% 29.93 in 10.0 mi West 8.1 mph - N/A   Overcast
1:14 AM 31.8 °F 26.2 °F 22.6 °F 69% 29.93 in 10.0 mi WNW 5.8 mph 9.2 mph N/A   Overcast
1:34 AM 31.5 °F 24.2 °F 22.3 °F 69% 29.93 in 10.0 mi WNW 8.1 mph - N/A   Overcast
1:54 AM 31.5 °F 25.8 °F 22.6 °F 70% 29.92 in 10.0 mi WNW 5.8 mph - N/A   Overcast
2:15 AM 31.1 °F 24.5 °F 22.5 °F 70% 29.92 in 10.0 mi WNW 6.9 mph - N/A   Overcast
2:34 AM 31.5 °F 24.9 °F 22.6 °F 70% 29.91 in 10.0 mi WNW 6.9 mph - N/A   Overcast
2:54 AM 31.1 °F 23.1 °F 22.8 °F 71% 29.91 in 10.0 mi WNW 9.2 mph - N/A   Overcast
3:15 AM 30.9 °F 23.5 °F 22.6 °F 71% 29.90 in 10.0 mi WNW 8.1 mph - N/A   Overcast
3:34 AM 30.9 °F 27.5 °F 22.6 °F 71% 29.90 in 10.0 mi West 3.5 mph - N/A   Overcast
3:54 AM 30.7 °F 24.1 °F 22.6 °F 72% 29.89 in 10.0 mi WNW 6.9 mph - N/A   Overcast
4:14 AM 30.9 °F 27.5 °F 22.8 °F 72% 29.90 in 10.0 mi West 3.5 mph - N/A   Overcast
4:34 AM 30.7 °F - 23.0 °F 73% 29.89 in 10.0 mi Calm Calm - N/A   Overcast
4:54 AM 31.1 °F 27.7 °F 23.0 °F 72% 29.89 in 10.0 mi West 3.5 mph - N/A   Overcast
5:14 AM 30.7 °F 26.0 °F 22.3 °F 71% 29.90 in 10.0 mi NW 4.6 mph - N/A   Overcast
5:34 AM 31.1 °F - 22.8 °F 71% 29.89 in 10.0 mi Calm Calm - N/A   Overcast
5:54 AM 30.9 °F 26.2 °F 22.6 °F 71% 29.89 in 10.0 mi WNW 4.6 mph - N/A   Overcast
6:15 AM 30.7 °F - 22.6 °F 72% 29.88 in 10.0 mi Calm Calm - N/A   Overcast
6:34 AM 30.6 °F 27.1 °F 22.6 °F 72% 29.88 in 10.0 mi West 3.5 mph - N/A   Overcast
6:54 AM 30.4 °F - 22.6 °F 73% 29.88 in 10.0 mi Calm Calm - N/A   Overcast
7:15 AM 30.7 °F - 22.8 °F 72% 29.87 in 10.0 mi Calm Calm - N/A   Overcast
7:34 AM 30.2 °F - 22.8 °F 74% 29.86 in 10.0 mi Calm Calm - N/A   Overcast
7:54 AM 30.2 °F - 22.8 °F 74% 29.86 in 10.0 mi Calm Calm - N/A   Overcast
8:15 AM 30.6 °F - 22.8 °F 73% 29.85 in 10.0 mi Calm Calm - N/A   Overcast
8:34 AM 30.2 °F - 22.5 °F 73% 29.85 in 10.0 mi Calm Calm - N/A   Overcast
8:54 AM 30.7 °F - 22.6 °F 72% 29.85 in 10.0 mi Calm Calm - N/A   Overcast
9:15 AM 30.7 °F 27.3 °F 22.6 °F 72% 29.85 in 10.0 mi SSW 3.5 mph - N/A   Overcast
9:34 AM 31.1 °F 27.7 °F 22.5 °F 70% 29.84 in 10.0 mi SW 3.5 mph - N/A   Overcast
9:55 AM 31.1 °F - 22.6 °F 71% 29.83 in 10.0 mi Calm Calm - N/A   Overcast
10:14 AM 31.1 °F 27.7 °F 22.6 °F 71% 29.83 in 10.0 mi WSW 3.5 mph - N/A   Overcast
10:34 AM 31.8 °F 27.3 °F 23.0 °F 70% 29.83 in 10.0 mi SSE 4.6 mph - N/A   Overcast
10:55 AM 31.8 °F 28.5 °F 22.8 °F 69% 29.84 in 10.0 mi South 3.5 mph - N/A   Overcast
11:14 AM 32.0 °F 25.6 °F 23.2 °F 70% 29.84 in 10.0 mi SW 6.9 mph - N/A   Overcast
11:35 AM 32.2 °F 26.7 °F 23.0 °F 69% 29.84 in 10.0 mi South 5.8 mph - N/A   Overcast
11:54 AM 33.6 °F 29.4 °F 23.0 °F 65% 29.84 in 10.0 mi SSW 4.6 mph - N/A   Mostly Cloudy
12:14 PM 34.7 °F 31.8 °F 23.7 °F 64% 29.83 in 10.0 mi SW 3.5 mph - N/A   Scattered Clouds
12:35 PM 34.9 °F 32.0 °F 23.2 °F 62% 29.82 in 10.0 mi WSW 3.5 mph - N/A   Clear
12:54 PM 36.5 °F 31.0 °F 23.5 °F 59% 29.81 in 10.0 mi West 6.9 mph - N/A   Clear
1:14 PM 37.2 °F 33.6 °F 24.1 °F 59% 29.79 in 10.0 mi SW 4.6 mph - N/A   Clear
1:35 PM 38.5 °F 35.0 °F 23.5 °F 55% 29.78 in 10.0 mi West 4.6 mph - N/A   Clear
1:54 PM 39.6 °F 35.4 °F 23.5 °F 53% 29.77 in 10.0 mi West 5.8 mph - N/A   Clear
2:14 PM 39.4 °F 37.2 °F 23.5 °F 53% 29.76 in 10.0 mi WSW 3.5 mph - N/A   Clear
2:34 PM 40.6 °F 37.5 °F 23.0 °F 49% 29.76 in 10.0 mi WSW 4.6 mph - N/A   Clear
2:54 PM 41.4 °F 38.4 °F 22.8 °F 48% 29.75 in 10.0 mi WSW 4.6 mph - N/A   Clear
3:14 PM 41.9 °F 39.0 °F 22.3 °F 46% 29.75 in 10.0 mi South 4.6 mph - N/A   Clear
3:34 PM 41.9 °F 39.0 °F 22.5 °F 46% 29.75 in 10.0 mi SSW 4.6 mph - N/A   Clear
3:55 PM 42.1 °F 39.2 °F 22.5 °F 46% 29.75 in 10.0 mi SW 4.6 mph - N/A   Clear
4:14 PM 41.9 °F 39.0 °F 22.3 °F 46% 29.75 in 10.0 mi SSW 4.6 mph - N/A   Clear
4:34 PM 42.3 °F 37.9 °F 22.6 °F 46% 29.75 in 10.0 mi SW 6.9 mph - N/A   Clear
4:54 PM 42.1 °F 39.2 °F 22.8 °F 46% 29.75 in 10.0 mi SW 4.6 mph - N/A   Clear
5:14 PM 42.1 °F 38.4 °F 23.0 °F 47% 29.75 in 10.0 mi SSW 5.8 mph - N/A   Clear
5:35 PM 41.2 °F 38.2 °F 23.0 °F 48% 29.76 in 10.0 mi SW 4.6 mph - N/A   Scattered Clouds
5:54 PM 40.6 °F 37.5 °F 23.7 °F 51% 29.76 in 10.0 mi SW 4.6 mph - N/A   Overcast
6:14 PM 38.3 °F 34.8 °F 26.2 °F 62% 29.77 in 10.0 mi South 4.6 mph - N/A   Overcast
6:34 PM 37.6 °F 33.1 °F 26.4 °F 64% 29.77 in 10.0 mi South 5.8 mph - N/A   Overcast
6:54 PM 37.0 °F 33.3 °F 26.4 °F 65% 29.77 in 10.0 mi SSW 4.6 mph - N/A   Overcast
7:14 PM 36.3 °F 32.5 °F 26.2 °F 67% 29.77 in 10.0 mi SSW 4.6 mph - N/A   Scattered Clouds
7:34 PM 35.8 °F 33.0 °F 26.4 °F 69% 29.78 in 10.0 mi SSW 3.5 mph - N/A   Clear
7:55 PM 35.1 °F 32.2 °F 26.4 °F 71% 29.79 in 10.0 mi SSW 3.5 mph - N/A   Clear
8:14 PM 34.7 °F 30.6 °F 26.4 °F 72% 29.79 in 10.0 mi SSW 4.6 mph - N/A   Clear
8:34 PM 34.9 °F 29.9 °F 27.0 °F 73% 29.79 in 10.0 mi South 5.8 mph - N/A   Mostly Cloudy
8:54 PM 34.7 °F 29.6 °F 27.1 °F 74% 29.79 in 10.0 mi South 5.8 mph - N/A   Overcast
9:14 PM 34.7 °F 29.6 °F 27.1 °F 74% 29.79 in 10.0 mi South 5.8 mph - N/A   Overcast
9:35 PM 34.2 °F 30.0 °F 27.3 °F 76% 29.80 in 10.0 mi South 4.6 mph - N/A   Scattered Clouds
9:54 PM 33.8 °F 27.7 °F 27.5 °F 78% 29.80 in 10.0 mi SSW 6.9 mph - N/A   Clear
10:14 PM 33.3 °F 27.9 °F 28.0 °F 81% 29.80 in 10.0 mi SSW 5.8 mph - N/A   Clear
10:35 PM 33.1 °F 26.9 °F 28.0 °F 82% 29.80 in 10.0 mi SSW 6.9 mph - N/A   Clear
10:54 PM 32.9 °F 26.7 °F 28.2 °F 83% 29.80 in 10.0 mi SSW 6.9 mph - N/A   Clear
11:14 PM 32.9 °F 26.7 °F 28.2 °F 83% 29.80 in 10.0 mi SSW 6.9 mph - N/A   Clear
11:35 PM 32.9 °F 25.9 °F 28.2 °F 83% 29.80 in 7.0 mi SSW 8.1 mph - N/A   Clear
11:54 PM 32.9 °F 26.7 °F 28.4 °F 84% 29.80 in 7.0 mi SSW 6.9 mph - N/A   Clear